www.pogodaiklimat.ru

Погода и климат >> Архив погоды >> Бенин >> Натитингу


ПОГОДА в Натитингу

  • Прогноз погоды в Натитингу
  • Монитор погоды в Натитингу

АРХИВ ПОГОДЫ в Натитингу

Время (UTC), дата Ветер
(напр.,м/с)
 
Видим.   Явления Облачность Т
(С)
Тd
(С)
f
(%)
Тe
(С)
Тes
(С)
Комфортность P
(гПа)
Po
(гПа)
Тmin
(С)
Tmax
(С)
R
(мм)
R24
(мм)
S
(см)
00 10.09 штиль 0 10 км {гроза, дождь} 10/0
[Ac As]
+22.9 +21.6 92 +31 +31 очень
душно
1013.0 965.5 16
03 10.09 штиль 0 10 км 10/0
[Ac As]
+22.9 +22.3 96 +31 +31 очень
душно
1012.1 964.6
06 10.09 штиль 0 10 км 10/1 400 м
[Sc Ac As]
+22.9 +22.3 96 +31 +31 очень
душно
1013.9 966.2 +21.0 16
09 10.09 ЮВ 3 10 км 10/5 400 м
[Cu Sc Ac As]
+23.6 +20.0 80 +29 +30 душно 1015.2 967.1
12 10.09 З 2 10 км 9/3 600 м
[Cu med, cong Ac trans Ci sp]
+28.0 +19.9 61 +34 +43 очень
душно
1012.4 964.9
15 10.09 СЗ 3 10 км 9/1 600 м
[Cu med, cong Ac trans Ci sp]
+29.5 +21.8 63 +38 +42 очень
душно
1009.7 962.4
18 10.09 штиль 0 10 км 9/0
[Ac trans Ci sp]
+27.7 +26.7 94 +43 +43 опасность
перегрева
1010.5 963.0 +30.1
21 10.09 штиль 0 10 км 8/0
[Ci sp]
+24.6 +23.9 96 +34 +34 очень
душно
1012.1 964.3
00 11.09 штиль 0 10 км 8/0
[Ci sp]
+23.4 +22.8 96 +33 +33 очень
душно
1011.2 963.7
03 11.09 Ю 1 10 км 9/0
[Ac trans Ci sp]
+23.1 +22.7 98 +32 +32 очень
душно
1009.8 962.5
06 11.09 ЮВ 1 10 км 9/0
[Ac trans Ci sp]
+23.0 +22.7 98 +32 +32 очень
душно
1010.3 962.9 +22.4
09 11.09 ЮЗ 2 10 км 9/0
[Ac trans Ci sp]
+27.2 +21.7 72 +35 +42 очень
душно
1012.1 964.7
12 11.09 СВ 1 10 км 9/4 600 м
[Cu med, cong Ac trans Ci sp]
+30.8 +22.5 61 +40 +49 очень
душно
1010.7 963.5
15 11.09 С 2 10 км гроза без осадков 10/10 400 м
[Cb cap]
+23.9 +21.2 85 +30 +30 очень
душно
1009.2 961.5
18 11.09 С 1 10 км гроза, ливневой дождь 10/4 400 м
[Cb cap Ac As]
+23.5 +21.3 87 +30 +30 очень
душно
1010.6 962.8 +31.5 4
21 11.09 ЮЗ 2 10 км гроза, ливневой дождь 10/5 400 м
[Cb cap Ac As]
+22.4 +21.2 93 +29 +29 очень
душно
1011.6 964.0
00 12.09 штиль 0 10 км в посл. час гроза {дождь} 9/0
[Ac trans Ci sp]
+22.1 +21.7 98 +29 +29 очень
душно
1012.0 964.6 12
03 12.09 штиль 0 10 км 9/0
[Ac trans Ci sp]
+22.0 +21.4 96 +29 +29 очень
душно
1009.6 961.8
06 12.09 СВ 1 10 км 9/1 400 м
[Sc Ac trans Ci sp]
+21.3 +21.0 98 +27 +27 душно 1011.3 963.3 +20.7 14
09 12.09 ЮВ 4 10 км 9/8 400 м
[Sc Ci sp]
+25.6 +21.8 80 +33 +34 очень
душно
1012.3 964.5
12 12.09 ЮВ 2 10 км 9/5 400 м
[Sc diur, vesp Ci sp]
+29.3 +22.9 68 +39 +48 очень
душно
1010.9 963.4
15 12.09 В 3 10 км 9/9 400 м
[Cu Sc Ci sp]
+29.8 +22.0 63 +38 +39 очень
душно
1009.5 962.2
18 12.09 В 2 10 км 9/3 600 м
[Cu med, cong Ac trans Ci sp]
+27.8 +22.8 74 +37 +37 очень
душно
1009.6 962.0 +31.2
21 12.09 Ю 1 10 км 8/0
[Ci sp]
+24.8 +23.2 91 +33 +33 очень
душно
1011.7 964.1
00 13.09 Ю 1 10 км 10/8 400 м
[Sc Ci sp]
+24.4 +23.0 92 +32 +32 очень
душно
1011.7 964.4
03 13.09 ЮВ 2 10 км 8/1 400 м
[Sc Ci sp]
+23.7 +22.7 94 +31 +31 очень
душно
1010.8 963.6
06 13.09 ЮВ 1 10 км 10/8 400 м
[Sc Ci sp]
+23.3 +22.1 93 +32 +32 очень
душно
1012.3 964.8 +22.8
09 13.09 ЮВ 4 10 км 9/8 400 м
[Cu Sc Cs]
+26.2 +22.6 81 +35 +36 очень
душно
1014.5 966.9
12 13.09 ЮВ 2 10 км 9/8 400 м
[Cu Sc Ci sp]
+30.1 +22.8 65 +40 +44 очень
душно
1011.9 964.7
15 13.09 ЮВ 3 10 км 9/5 600 м
[Cu med, cong Ci sp]
+31.3 +22.6 60 +41 +44 опасность
перегрева
1009.7 962.6
18 13.09 Ю 1 10 км 9/1 600 м
[Cu med, cong Ac trans Ci sp]
+26.9 +24.8 88 +38 +38 очень
душно
1010.2 962.7 +32.0
21 13.09 штиль 0 10 км 8/0
[Ci sp]
+25.7 +24.4 93 +36 +36 очень
душно
1012.2 964.8
00 14.09 штиль 0 10 км 8/0
[Ci sp]
+24.2 +23.8 98 +33 +33 очень
душно
1012.1 964.8
03 14.09 Ю 1 10 км 8/0
[Ac trans Ci sp]
+24.0 +23.6 98 +33 +33 очень
душно
1010.6 963.4
06 14.09 штиль 0 10 км 9/3 400 м
[Sc Ac As]
+24.1 +23.5 96 +32 +32 очень
душно
1013.0 965.4 +23.2
09 14.09 ЮВ 3 10 км 9/3 600 м
[Cu med, cong Ac trans Ci sp]
+27.3 +23.6 80 +37 +41 очень
душно
1013.7 966.2
12 14.09 В 2 10 км 9/4 600 м
[Cu med, cong Ac trans Ci sp]
+30.4 +24.1 69 +42 +50 опасность
перегрева
1010.6 963.4
15 14.09 штиль 0 10 км 10/9 400 м
[Sc diur, vesp As op]
+31.6 +23.7 63 +43 +43 опасность
перегрева
1008.1 961.1
18 14.09 СВ 1 10 км гроза без осадков 10/3 400 м
[Cb cap Ac As Cs]
+24.7 +23.3 92 +33 +33 очень
душно
1010.4 962.8 +32.2 3
21 14.09 ЮВ 1 10 км {гроза} 10/1 400 м
[Cu Sc Ac trans Ci sp]
+23.6 +21.8 90 +30 +30 очень
душно
1010.3 962.9
00 15.09 ЮВ 1 10 км 9/0
[Ac trans Ci sp]
+23.9 +22.9 94 +32 +32 очень
душно
1010.0 962.8
03 15.09 Ю 2 10 км 10/0
[Ac As]
+23.4 +22.4 94 +32 +32 очень
душно
1009.7 962.6
06 15.09 ЮВ 2 10 км 9/0
[Ac trans Ci sp]
+23.1 +22.1 94 +31 +31 очень
душно
1010.6 962.9 +22.1 3
09 15.09 С 4 10 км в посл. час дождь 10/4 400 м
[Sc Ac As]
+25.5 +22.5 83 +33 +35 очень
душно
1013.9 966.1
12 15.09 ЮЗ 2 10 км {дождь} 10/1 400 м
[Cu Sc Ac As]
+26.9 +22.7 78 +36 +41 очень
душно
1011.1 963.6 0.0
15 15.09 ЮЗ 3 10 км 9/6 400 м
[Cu Sc Ac As Ci sp]
+27.8 +21.8 70 +36 +38 очень
душно
1009.0 961.6
18 15.09 штиль 0 10 км {дождь} 9/1 600 м
[Cu med, cong Ac trans Ci sp]
+26.0 +23.3 85 +35 +35 очень
душно
1009.4 961.9 +28.0
21 15.09 Ю 1 10 км 9/0
[Ac trans Ci sp]
+23.6 +22.7 95 +31 +31 очень
душно
1010.7 963.1
00 16.09 З 1 10 км 10/0
[Ac As]
+23.2 +22.5 96 +32 +32 очень
душно
1011.0 963.4
03 16.09 штиль 0 10 км 10/0
[Ac As]
+22.6 +22.5 99 +31 +31 очень
душно
1010.0 962.5
06 16.09 Ю 1 10 км 10/1 400 м
[Sc Ac As]
+22.2 +21.9 98 +29 +29 очень
душно
1011.2 963.5 +21.7 0.0
09 16.09 ЮВ 2 10 км 9/8 400 м
[Cu Sc Ci sp]
+28.1 +23.7 77 +39 +41 очень
душно
1011.6 964.2
12 16.09 ЮВ 3 10 км 9/9 400 м
[Cu Sc Ci sp]
+30.5 +23.3 65 +41 +43 опасность
перегрева
1009.9 962.7
15 16.09 ЮВ 2 10 км гроза, ливневой дождь 9/9 400 м
[Cb cap Ac trans Ci sp]
+29.4 +25.0 77 +42 +43 опасность
перегрева
1008.2 961.1
18 16.09 штиль 0 10 км гроза без осадков 9/5 400 м
[Cb cap Ac trans Ci sp]
+23.7 +22.7 94 +31 +31 очень
душно
1009.6 961.8 +31.5 15
21 16.09 Ю 1 10 км гроза, ливневой дождь 9/1 900 м
[Cb cap Ac As]
+23.7 +23.0 96 +31 +31 очень
душно
1011.0 963.6

 

Местоположение метеостанции Натитингу (Бенин): широта 10.32 долгота 1.38 высота над уровнем моря 461 м.

В архиве по умолчанию представлена погода в Натитингу за последнюю неделю. Архивные данные за месяц целиком и за предыдущие месяцы, начиная с января 2011 года, Вы можете получить, выбрав интересующий диапазон дат из раскрывающегося списка и нажав кнопку "Ввод!".


*Определитесь, кто Вы:
робот инопланетянин человек

Внимание! Время в таблицах - всемирное. Для получения местного времени необходимо прибавить поправку, которая равна 1 ч.

Смотрите также архив погоды в соседних городах и на ближайших метеорологических станциях:

Погода в Ньамтугу (Того) (68 км)
Погода в Каре (Того) (89 км)
Погода в Манго (Того) (100 км)
Погода в Дапаоне (Того) (128 км)
Погода в Сокоде (Того) (151 км)
Погода в Параку (Бенин) (174 км)
Погода в Йенди (Гана) (181 км)
Погода в Канди (Бенин) (192 км)
Погода в Фада-Нгурме (Буркина-Фасо) (220 км)
Погода в Тамале (Гана) (261 км)

Пояснения к столбцам:

Ветер - указаны скорость ветра в м/с - средняя за 10 мин, порывы в срок и между сроками (в фигурных скобках) и направление, откуда дует ветер: С - северный, СВ - северо-восточный, В - восточный, ЮВ - юго-восточный, Ю - южный, ЮЗ - юго-западный, З - западный, СЗ - северо-западный.
Видимость - горизонтальная дальность видимости в метрах или километрах. При видимости от 1 до 10 км при отсутствии осадков обычно наблюдается дымка, при ухудшении видимости до 1 км и менее - туман. В сухую погоду видимость может ухудшаться дымом, пылью или мглою.
Явления - указаны атмосферные явления, наблюдавшиеся в срок или в последний час перед сроком; фигурными скобками обозначены явления, наблюдавшиеся между сроками (за 1-3 часа до срока); квадратными скобками обозначены град или гололедные отложения с указанием их диаметра в мм.
Облачность - указаны через наклонную черту общая и нижняя облачность в баллах и высота нижней границы облаков в метрах; квадратными скобками обозначены формы облаков: Ci - перистые, Cs - перисто-слоистые, Cc - перисто-кучевые, Ac - высококучевые, As - высокослоистые, Sc - слоисто-кучевые, Ns - слоисто-дождевые, Cu - кучевые, Cb - кучево-дождевые. Подробнее классификацию облаков см. в Атласе облаков (PDF).
T - Температура воздуха - температура, измеренная на высоте 2 м над землей.
Td - Температура точки росы - температура, при понижении до которой содержащийся в воздухе водяной пар достигнет насыщения.
f - Относительная влажность воздуха - влажноcть воздуха, измеренная на высоте 2 м над землей.
Te - Эффективная температура - температура, которую ощущает одетый по сезону человек в тени. Характеристика душности погоды. При расчете учитывается влияние влажности воздуха и скорости ветра на теплоощущения человека.
Tes - Эффективная температура на солнце - температура, которую ощущает человек, с поправкой на солнечный нагрев. Характеристика знойности погоды. Зависит от высоты солнца над горизонтом, облачности и скорости ветра. Ночью, в пасмурную погоду, а также при ветре 12 м/с и более поправка равна нулю.
P - Атмосферное давление - приведенное к уровню моря атмосферное давление.
Po - Атмосферное давление - измеренное на уровне метеостанции атмосферное давление.
Tmin - Минимальная температура - минимум температуры воздуха на высоте 2 м над землей.
Tmax - Максимальная температура - максимум температуры воздуха на высоте 2 м над землей.
R - Количество осадков - Количество выпавших осадков за период времени, мм. При наведении курсора мыши на число - период времени, за который выпало указанное количество осадков.
R24 - Количество осадков - Количество выпавших осадков за 24 часа, мм.
S - Снежный покров - Высота снежного покрова, см. При наведении курсора мыши на число - состояние снежного покрова и степень покрытия местности в баллах.